User: anonymous   Login
Location: Unspecified
(0.0000°N, 0.0000°E)
Time: 01:59:34
(UTC+00:00)
Language:

NAVSTAR 65 (USA 213) - Orbit

View from above orbital plane
View from above orbital plane
View from above satellite
View from above satellite

Ground track
Ground track

The orbit data is extracted from the following two-line orbital elements,

1 36585U 10022A   16268.23913980 -.00000096  00000-0  00000+0 0  9995
2 36585  56.0520 351.1653 0054268  43.2404  68.3232  2.00561309 46328
Epoch (UTC): 24 September 2016 05:44:21
Eccentricity: 0.0054268
inclination: 56.0520°
perigee height: 20038 km
apogee height: 20326 km
right ascension of ascending node: 351.1653°
argument of perigee: 43.2404°
revolutions per day: 2.00561309
mean anomaly at epoch: 68.3232°
orbit number at epoch: 4632

The dashed part of the orbit path shows where the satellite is in the earth's shadow,  

DLR